This demonstration page uses our WeatherBlox Daily Observations layout. Learn more.

Left ArrowRight Arrow

30.21309, -93.2044

Hourly Observations for July 17, 2019

Temp ( °F °C ) Dew Point ( °F °C ) Humidity (%) Winds ( mph kmh ) Pressure ( in mb ) Visibility ( mi km ) Precip ( " mm )
12:15 am 00:15 Partly Cloudy 78 25.8 78 25.5 98 98 ESE 8 13 30.06 1018 7 11 0.00 0.00
12:35 am 00:35 Partly Cloudy 79 26.1 78 25.7 98 98 ESE 8 13 30.06 1018 7 11 0.00 0.00
12:55 am 00:55 Partly Cloudy 79 26.1 78 25.7 98 98 ESE 8 13 30.06 1018 7 11 0.00 0.00
1:15 am 01:15 Partly Cloudy 79 26.1 78 25.7 98 98 ESE 8 13 30.06 1018 7 11 0.00 0.00
1:35 am 01:35 Clear 79 26.1 78 25.6 97 97 ESE 7 11 30.06 1018 7 11 0.00 0.00
1:55 am 01:55 Clear 79 26 78 25.5 97 97 ESE 7 11 30.06 1018 7 11 0.00 0.00
2:15 am 02:15 Clear 79 26 78 25.5 97 97 ESE 7 11 30.06 1018 7 11 0.00 0.00
2:35 am 02:35 Clear 78 25.7 77 25.2 97 97 ESE 6 9 30.06 1018 7 11 0.00 0.00
2:55 am 02:55 Clear with Mist and Fog 77 25.2 77 24.8 98 98 SE 5 7 30.06 1018 5 8 0.00 0.00
3:15 am 03:15 Partly Cloudy with Mist and Fog 77 25.2 77 25 99 99 SE 5 7 30.06 1018 5 8 0.00 0.00
3:35 am 03:35 Partly Cloudy 77 25.2 77 25 99 99 SE 3 6 30.06 1018 7 11 0.00 0.00
3:55 am 03:55 Clear 77 25.2 77 25 99 99 SE 6 9 30.06 1018 7 11 0.00 0.00
4:15 am 04:15 Clear 77 25 76 24.7 98 98 SE 5 7 30.06 1018 7 11 0.00 0.00
4:35 am 04:35 Clear with Mist and Fog 76 24.6 76 24.3 98 98 Calm 30.06 1018 5 8 0.00 0.00
4:55 am 04:55 Clear with Mist and Fog 77 25 76 24.6 98 98 Calm 30.06 1018 5 8 0.00 0.00
5:15 am 05:15 Clear with Mist and Fog 77 24.8 76 24.6 99 99 SE 3 6 30.06 1018 5 8 0.00 0.00
5:35 am 05:35 Clear with Mist and Fog 76 24.7 76 24.5 99 99 Calm 30.06 1018 3 5 0.00 0.00
5:55 am 05:55 Mostly Clear 77 25 75 24 94 94 Calm 30.06 1018 10 16 0.00 0.00
6:55 am 06:55 Mostly Sunny 75 24 75 24 100 100 Calm 30.06 1018 10 16 0.00 0.00
7:55 am 07:55 Partly Cloudy 79 26 79 26 100 100 Calm 30.09 1019 10 16 0.00 0.00
8:55 am 08:55 Mostly Cloudy 84 29 81 27 89 89 SSE 6 9 30.09 1019 10 16 0.00 0.00
9:55 am 09:55 Mostly Cloudy 86 30 79 26 79 79 S 8 13 30.12 1020 10 16 0.00 0.00
10:55 am 10:55 Mostly Cloudy 86 30 77 25 75 75 S 6 9 30.12 1020 10 16 0.00 0.00
11:55 am 11:55 Mostly Cloudy 88 31 77 25 70 70 SSW 10 17 30.12 1020 10 16 0.00 0.00
12:55 pm 12:55 Mostly Cloudy 88 31 77 25 70 70 SSW 10 17 30.12 1020 10 16 0.00 0.00
1:50 pm 13:50 Partly Cloudy 91 33 77 25 63 63 SSE 7 11 30.09 1019 10 16 0.00 0.00
2:55 pm 14:55 Mostly Cloudy 91 33 77 25 63 63 SSE 7 11 30.09 1019 10 16 0.00 0.00
3:53 pm 15:53 Mostly Cloudy 91 33 77 25 63 63 S 12 19 30.06 1018 10 16 0.00 0.00
5:55 pm 17:55 Mostly Cloudy 90 32 77 25 67 67 SSW 12 19 30.06 1018 10 16 0.00 0.00
6:50 pm 18:50 Mostly Cloudy 90 32 77 25 67 67 SSE 13 20 30.03 1017 10 16 0.00 0.00
7:48 pm 19:48 Mostly Sunny 84 29 77 25 79 79 S 10 17 30.03 1017 10 16 0.00 0.00
8:50 pm 20:50 Mostly Clear 81 27 77 25 89 89 SE 7 11 30.03 1017 10 16 0.00 0.00
9:50 pm 21:50 Mostly Clear 81 27 77 25 89 89 ESE 7 11 30.03 1017 10 16 0.00 0.00
10:15 pm 22:15 Clear 79 26.2 77 25 93 93 ESE 8 13 30.06 1018 10 16 0.00 0.00
10:35 pm 22:35 Clear 78 25.6 77 24.8 95 95 E 7 11 30.06 1018 10 16 0.00 0.00
10:55 pm 22:55 Clear 78 25.5 76 24.7 95 95 SE 6 9 30.06 1018 10 16 0.00 0.00
11:15 pm 23:15 Clear 78 25.6 77 25 97 97 ESE 8 13 30.06 1018 10 16 0.00 0.00
11:35 pm 23:35 Clear 78 25.6 77 25 97 97 ESE 8 13 30.06 1018 10 16 0.00 0.00
11:55 pm 23:55 Clear 78 25.5 77 25 97 97 ESE 7 11 30.06 1018 10 16 0.00 0.00

Powered by AerisWeather